Regional Weather Roundup
Issued by NWS

Home | Current Version | Previous Version | Text Only | Print | Product List | Glossary Off
Versions: 1 2 3 4 5 6 7 8 9 10 11 12 13 14 15 16 17 18 19 20 21 22 23 24 25 26 27 28 29 30 31 32 33 34 35 36 37 38 39 40 41 42 43 44 45 46 47 48 49 50

000
ASUS45 KSLC 241710
RWRUT

UTAH REGIONAL WEATHER ROUNDUP
NATIONAL WEATHER SERVICE SALT LAKE CITY UT
1000 AM MST SAT JAN 24 2015

UTZ001>011-023>025-241800-

NORTHERN UTAH

CITY           SKY/WX    TMP DP  RH WIND       PRES   REMARKS
BRIGHAM CITY   CLOUDY    29  24  81 CALM      30.53R
HILL AFB       CLOUDY    29  16  58 E13       30.51R WCI  19
LOGAN          CLOUDY    25  21  85 SW3       30.52R
OGDEN          PTSUNNY   30  20  66 CALM      30.52R
PROVO AIRPORT  PTSUNNY   25  21  86 S6        30.54R WCI  18
SALT LAKE CITY PTSUNNY   32  21  64 S7        30.53R WCI  26
VERNAL         CLOUDY    26  18  71 NE5       30.43R WCI  20
WENDOVER       SUNNY     28  23  80 E5        30.52S WCI  23
HEBER CITY     PTSUNNY   19  14  79 NW5       30.51S WCI  13
WEST JORDAN    SUNNY     30  23  74 S10       30.52S WCI  21

$$

UTZ012>022-026-027-241800-

SOUTHERN/CENTRAL UTAH

CITY           SKY/WX    TMP DP  RH WIND       PRES   REMARKS
BLANDING       MOSUNNY   34  14  44 SW5       30.46R WCI  30
BRYCE CANYON     N/A     27  16  63 N6        30.42R WCI  20
CEDAR CITY     SUNNY     31  20  63 N6        30.44R WCI  25
DELTA          MOSUNNY   28  22  80 NE5       30.52S WCI  22
MILFORD        SUNNY     31  20  63 NW3       30.49R
MOAB/CYNLANDS  SUNNY     32  20  61 CALM      30.44R
PRICE          CLOUDY    33  20  58 NE6       30.40S WCI  28
ST GEORGE      PTSUNNY   43  19  39 N3        30.42S
KANAB          SUNNY     43  19  39 NE6       30.42F

$$

REGIONAL REPORTS     COLORADO/ARIZONA

CITY           SKY/WX    TMP DP  RH WIND       PRES   REMARKS
CRAIG, CO        N/A     11   5  77 MISG      30.41S
GRAND JUNCTION CLOUDY    29  15  56 S5        30.46R WCI  24
RIFLE          CLOUDY    23  13  65 E3        30.46F
MONTROSE       CLOUDY    26  11  52 CALM      30.47R
CORTEZ         SUNNY     32  17  54 CALM      30.39S
PAGE, AZ       NOT AVBL
GRAND CANYON   SUNNY     41  12  30 NE17G24   30.36R
KINGMAN        SUNNY     47  18  31 N17       30.30S
FLAGSTAFF      SUNNY     37   6  27 E13       30.34S WCI  29

$$

REGIONAL REPORTS    NEVADA/IDAHO/WYOMING

CITY           SKY/WX    TMP DP  RH WIND       PRES   REMARKS
LAS VEGAS, NV  SUNNY     54  23  30 S6        30.31F
ELY            SUNNY     28  22  78 CALM      30.49R
ELKO           SUNNY     28  22  78 NE5       30.51S WCI  23
POCATELLO, ID  CLOUDY    29  29 100 CALM      30.47S
BURLEY         CLOUDY    31  29  92 NE3       30.47R
EVANSTON, WY   PTSUNNY   21  17  84 SW13      30.42S WCI   9
ROCK SPRINGS   CLOUDY    29  17  61 W29       30.31R WCI  14

$$


USA.gov is the U.S. government's official web portal to all federal, state and local government web resources and services.